Vorticity
9 8 6 8 9 6 5 6 6 6 9 9 6 5 7 7 8 8 7 8 8 7 7 7 5 5 7 7 6 8 8 7 7 6 7 8 7 8 8 8 7 7
7 8 7 7 8 7 6 6 6 5 7 8 6 6 6 7 8 7 7 8 7 7 7 7 6 6 7 6 6 8 7 7 7 6 6 7 6 7 8 8 8 7
7 8 7 7 8 8 7 7 6 5 7 7 5 5 6 6 7 8 8 9 8 8 7 7 7 7 7 8 8 8 7 6 7 7 7 6 6 7 7 7 7 6
6 9 8 7 8 7 7 8 7 5 6 7 6 6 5 6 7 7 8 9 9 9 7 7 8 7 7 9 9 7 6 7 8 8 7 7 6 7 7 7 8 7
4 8 9 7 8 8 7 7 7 6 5 7 8 7 6 6 6 7 6 8 9 9 8 8 8 9 8 8 9 8 7 7 8 8 7 7 7 8 8 8 8 7
3 6 9 8 7 8 7 7 7 6 6 6 7 7 6 6 6 6 6 7 8 8 8 8 8 8 8 8 8 8 7 8 7 7 7 7 7 9 9 9 9 9
3 3 7 9 9 7 7 8 7 6 7 6 7 6 6 6 5 5 5 6 7 7 7 8 8 8 8 8 8 8 7 8 7 7 7 7 7 8 9 9 10 10
4 2 5 8 10 8 6 8 7 7 6 6 7 6 5 6 5 5 5 4 5 6 6 7 7 8 8 8 9 9 8 7 7 8 8 7 7 6 7 8 8 10
7 3 2 4 9 10 8 7 7 7 7 6 7 6 6 6 5 4 4 4 4 4 5 6 6 6 7 8 9 9 9 8 7 8 9 8 7 6 6 6 7 8
11 7 2 1 5 9 10 8 7 7 7 6 6 6 5 5 5 5 4 4 4 4 4 5 5 5 6 7 9 10 11 10 7 7 8 9 8 7 6 5 5 6
11 11 7 2 1 4 8 9 8 7 7 6 6 6 5 4 4 4 4 4 4 4 4 4 4 5 5 6 8 9 11 11 9 8 7 8 9 9 7 4 4 5
8 14 13 6 2 2 4 7 9 9 8 7 6 6 5 5 4 4 4 5 5 4 5 5 4 5 5 5 6 7 8 9 10 11 8 7 8 10 9 6 4 5
6 14 16 10 6 3 3 5 7 9 9 9 8 7 6 6 5 5 5 5 5 5 5 5 5 5 5 5 6 6 7 7 7 10 11 10 8 9 11 9 6 6
11 13 11 12 10 5 3 4 5 8 8 8 9 8 8 7 6 5 4 4 5 4 4 5 5 5 5 5 5 6 6 7 6 6 9 12 10 8 9 10 9 7
14 11 5 8 11 8 5 3 3 7 7 6 8 9 9 9 8 7 6 5 4 3 3 4 4 5 5 5 6 6 6 7 7 6 5 8 11 10 9 9 9 9
12 10 6 7 8 9 7 2 2 7 7 5 5 6 9 11 11 10 9 8 8 7 6 6 5 6 6 5 6 6 6 6 7 8 7 5 7 9 10 9 8 8
6 9 15 13 5 7 12 8 4 6 9 8 5 3 5 7 8 10 10 8 8 8 9 10 10 9 8 8 7 6 7 6 6 7 9 8 7 7 9 10 9 8
4 6 15 12 5 8 13 10 3 2 6 10 9 6 5 3 4 7 8 7 6 7 8 9 9 9 8 9 9 8 7 7 7 7 7 8 9 7 7 8 9 9
13 11 12 10 9 11 9 8 8 6 6 9 10 9 8 6 5 5 5 5 4 6 8 8 7 7 6 6 7 9 8 7 7 8 7 7 9 9 9 7 8 9
15 16 13 11 12 9 6 10 13 10 9 10 9 7 7 7 8 8 7 5 3 4 6 6 6 7 6 6 5 6 8 7 7 7 7 7 7 8 9 9 7 7
7 14 15 16 19 13 5 4 4 4 10 12 7 2 2 6 9 10 8 6 6 8 5 3 4 5 5 6 5 4 4 5 5 6 7 6 6 6 6 7 8 7
3 8 11 15 20 21 17 12 5 2 7 9 6 5 5 6 9 13 11 8 7 7 5 3 4 4 3 4 6 5 5 4 4 5 5 5 5 5 5 5 6 6
3 4 7 9 11 15 23 24 17 10 7 4 3 5 7 5 4 7 10 11 11 8 5 5 6 4 4 6 6 6 7 8 8 7 7 7 6 6 6 5 5 5
3 1 2 3 2 4 10 13 13 14 15 13 8 5 7 7 3 0 2 6 10 9 6 7 8 7 7 8 7 4 4 5 5 5 6 8 8 8 8 8 6 5
5 5 4 3 3 4 6 8 9 10 13 16 17 15 14 12 7 3 1 2 6 6 4 5 7 8 11 12 7 4 4 4 3 3 3 4 6 6 7 9 9 7
1 3 4 5 6 4 3 5 8 8 7 8 11 16 21 20 14 8 3 1 4 6 5 4 4 5 12 15 9 2 4 7 7 7 6 5 5 7 8 6 6 8
Height
5948 5950 5952 5953 5955 5956 5958 5958 5959 5960 5961 5962 5963 5964 5965 5966 5966 5967 5968 5969 5970 5971 5971 5972 5973 5974 5975 5975 5976 5976 5977 5977 5978 5978 5978 5979 5979 5980 5980 5980 5981 5981
5947 5949 5950 5952 5953 5955 5957 5958 5958 5959 5960 5961 5962 5963 5964 5965 5966 5967 5968 5969 5969 5970 5971 5972 5973 5974 5974 5975 5975 5976 5977 5977 5978 5978 5979 5979 5980 5980 5980 5981 5981 5981
5945 5947 5949 5950 5952 5954 5956 5957 5957 5958 5959 5960 5961 5962 5963 5964 5965 5967 5968 5969 5970 5970 5971 5972 5973 5974 5974 5975 5976 5976 5976 5977 5978 5978 5979 5979 5980 5980 5981 5981 5981 5982
5944 5946 5948 5949 5951 5952 5954 5955 5956 5957 5958 5960 5961 5962 5963 5964 5965 5966 5967 5969 5970 5971 5971 5972 5973 5974 5975 5975 5976 5976 5976 5977 5978 5978 5979 5979 5980 5980 5981 5981 5981 5982
5944 5945 5946 5948 5950 5951 5952 5954 5955 5956 5957 5959 5960 5961 5962 5963 5965 5966 5967 5969 5970 5971 5971 5973 5973 5974 5975 5975 5976 5976 5976 5977 5978 5978 5979 5979 5980 5980 5981 5981 5982 5982
5943 5944 5945 5947 5949 5950 5951 5952 5954 5955 5956 5957 5959 5960 5961 5962 5964 5965 5967 5968 5969 5970 5971 5973 5973 5974 5975 5975 5976 5976 5977 5977 5977 5978 5979 5979 5979 5980 5981 5981 5981 5982
5942 5943 5945 5946 5948 5949 5950 5951 5953 5954 5955 5957 5958 5959 5960 5962 5963 5964 5965 5967 5968 5970 5971 5972 5973 5973 5974 5975 5976 5976 5977 5977 5977 5978 5978 5979 5979 5980 5980 5981 5981 5981
5941 5942 5944 5945 5947 5948 5949 5950 5951 5952 5954 5956 5957 5958 5959 5961 5962 5963 5964 5965 5967 5968 5970 5971 5972 5973 5974 5975 5975 5976 5976 5977 5977 5978 5978 5978 5979 5980 5980 5980 5981 5981
5938 5940 5942 5944 5946 5947 5948 5949 5950 5951 5952 5953 5955 5956 5958 5959 5961 5962 5963 5964 5966 5967 5968 5969 5971 5972 5973 5974 5975 5975 5976 5976 5977 5977 5978 5978 5979 5979 5980 5980 5980 5981
5935 5937 5940 5942 5945 5946 5948 5948 5948 5949 5950 5951 5953 5954 5956 5957 5959 5961 5962 5963 5964 5965 5966 5968 5969 5971 5972 5973 5974 5974 5975 5976 5976 5976 5977 5977 5978 5978 5979 5980 5980 5980
5935 5937 5939 5940 5942 5945 5947 5948 5949 5949 5949 5950 5951 5952 5954 5955 5957 5959 5960 5962 5963 5964 5965 5966 5968 5969 5970 5971 5973 5973 5974 5975 5975 5975 5976 5976 5977 5977 5978 5979 5979 5979
5935 5936 5937 5938 5940 5941 5944 5947 5949 5950 5950 5950 5950 5951 5953 5954 5956 5957 5958 5960 5961 5962 5964 5965 5966 5967 5968 5970 5971 5972 5973 5973 5974 5975 5975 5976 5976 5977 5977 5978 5978 5978
5933 5933 5933 5935 5937 5938 5940 5943 5946 5949 5950 5950 5951 5952 5952 5954 5955 5956 5957 5958 5959 5961 5962 5964 5965 5966 5967 5968 5969 5970 5971 5972 5972 5973 5974 5974 5975 5976 5976 5977 5977 5977
5929 5930 5930 5932 5934 5936 5938 5940 5943 5946 5948 5950 5951 5952 5953 5953 5954 5955 5956 5957 5959 5960 5961 5963 5964 5965 5966 5967 5967 5968 5969 5970 5971 5972 5972 5973 5974 5974 5975 5975 5976 5976
5926 5927 5929 5930 5932 5933 5935 5937 5940 5943 5945 5947 5948 5950 5951 5952 5953 5954 5956 5957 5959 5960 5961 5962 5963 5964 5965 5965 5966 5967 5967 5968 5969 5970 5971 5972 5972 5973 5973 5974 5974 5974
5922 5924 5926 5928 5930 5931 5932 5935 5937 5940 5942 5944 5945 5946 5948 5949 5951 5952 5954 5955 5957 5958 5960 5961 5962 5963 5963 5964 5964 5965 5966 5966 5967 5968 5969 5970 5971 5971 5972 5972 5972 5973
5920 5922 5924 5926 5928 5930 5932 5933 5936 5938 5940 5941 5943 5944 5945 5947 5948 5950 5951 5952 5953 5955 5957 5958 5960 5961 5961 5961 5962 5962 5963 5964 5964 5965 5966 5967 5968 5969 5970 5970 5971 5971
5918 5920 5921 5924 5926 5928 5930 5932 5935 5937 5938 5939 5940 5941 5942 5944 5946 5947 5949 5950 5950 5951 5953 5955 5956 5957 5958 5958 5959 5959 5960 5960 5961 5962 5963 5964 5964 5965 5966 5967 5968 5969
5915 5917 5918 5921 5923 5924 5926 5928 5932 5934 5935 5935 5936 5937 5938 5940 5941 5943 5945 5947 5948 5949 5950 5951 5952 5953 5954 5955 5955 5955 5956 5957 5958 5959 5960 5961 5961 5962 5963 5963 5964 5965
5912 5914 5916 5918 5920 5921 5923 5924 5927 5930 5931 5932 5933 5935 5936 5937 5938 5939 5940 5942 5944 5946 5947 5947 5948 5949 5950 5951 5951 5951 5951 5952 5954 5955 5956 5957 5958 5959 5959 5960 5960 5961
5909 5911 5913 5915 5916 5918 5920 5921 5923 5925 5927 5929 5931 5932 5933 5934 5935 5936 5937 5938 5939 5941 5943 5944 5944 5944 5944 5945 5946 5946 5946 5947 5949 5951 5952 5953 5954 5955 5955 5956 5956 5957
5908 5909 5910 5912 5913 5915 5917 5919 5920 5922 5924 5925 5927 5929 5930 5931 5932 5932 5933 5934 5935 5936 5938 5940 5939 5938 5938 5940 5943 5944 5944 5944 5945 5946 5948 5949 5950 5951 5951 5952 5952 5953
5906 5907 5908 5909 5911 5913 5914 5916 5917 5919 5920 5921 5923 5924 5926 5927 5927 5928 5929 5930 5931 5932 5933 5934 5934 5934 5936 5939 5942 5944 5945 5945 5945 5945 5946 5947 5948 5948 5948 5948 5949 5949
5903 5904 5905 5906 5908 5910 5911 5912 5914 5915 5916 5917 5918 5920 5921 5922 5923 5924 5925 5926 5927 5927 5928 5929 5929 5932 5935 5938 5940 5942 5943 5943 5944 5943 5943 5945 5947 5947 5947 5947 5946 5946
5899 5900 5901 5902 5904 5906 5907 5908 5909 5911 5913 5914 5914 5915 5916 5917 5919 5920 5921 5922 5922 5923 5923 5924 5926 5929 5932 5934 5935 5935 5934 5935 5936 5937 5938 5939 5941 5942 5943 5944 5945 5945
5895 5897 5898 5899 5901 5903 5904 5905 5906 5908 5909 5911 5911 5912 5912 5913 5914 5915 5916 5917 5918 5919 5919 5921 5924 5927 5928 5929 5929 5927 5926 5926 5929 5930 5931 5933 5934 5936 5938 5940 5942 5943